SCP
0 0 0 0 0 0 0 0 0 0 0 0 -0 0 0 0 0 0 0 0 0 0 0 0 0 0 0 0 0 0 0 0 0 0 0 0 0 0 0 0 0 0 0 0
0 0 0 0 0 0 0 0 0 0 0 0 0 0 0 0 0 0 0 0 0 0 0 0 0 0 0 0 0 0 0 0 0 0 0 0 0 0 0 0 0 0 0 0
0 0 0 0 0 0 0 0 0 0 0 0 0 0 0 0 0 0 0 0 0 0 0 0 0 0 0 0 0 0 0 0 0 0 0 0 0 0 0 0 0 0 0 0
0 0 0 0 0 0 0 0 0 0 0 0 0 0 0 0 0 0 0 0 0 0 0 0 0 0 0 0 0 0 0 0 0 0 0 0 0 0 0 0 0 0 0 0
0 0 0 0 0 0 0 0 0 0 0 0 0 0 0 0 0 0 0 0 0 0 0 0 0 0 0 0 0 0 0 0 0 0 0 0 0 0 0 0 0 0 0 0
0 0 0 0 0 0 0 0 0 0 0 0 0 0 0 0 0 0 0 0 0 0 0 0 0 0 0 0 0 0 0 0 0 0 0 0 0 0 0 0 0 0 0 0
0 0 0 0 0 0 0 0 0 0 0 0 0 0 0 0 0 0 0 0 0 0 0 0 0 0 0 0 0 0 0 0 0 0 0 0 0 0 0 0 0 0 0 0
0 0 0 0 0 0 0 0 0 0 0 0 0 0 0 0 0 0 0 0 0 0 0 0 0 0 0 0 0 0 0 0 0 0 0 0 0 0 0 0 0 0 0 0
0 0 0 0 0 0 0 0 0 0 0 0 0 0 0 0 0 0 0 0 0 0 0 0 0 0 0 0 0 0 0 0 0 0 0 0 0 0 0 0 0 0 0 0
0 0 0 0 0 0 0 0 0 0 0 0 0 0 0 0 0 0 0 0 0 0 0 0 0 0 0 0 0 0 0 0 0 0 0 0 0 0 0 0 0 0 0 0
0 0 0 0 0 0 0 0 0 0 0 0 0 0 0 0 0 0 0 0 0 0 0 0 0 0 0 0 0 0 0 0 0 0 0 0 0 0 0 0 0 0 0 0
0 0 0 0 0 0 0 0 0 0 0 0 0 0 0 0 0 0 0 0 0 0 0 0 0 0 0 0 0 0 0 0 0 0 0 0 0 0 0 0 0 0 0 0
0 0 0 0 0 0 0 0 0 0 0 0 0 0 0 0 0 0 0 0 0 0 0 0 0 0 0 0 0 0 0 0 0 0 0 0 0 0 0 0 0 0 0 0
0 0 0 0 0 0 0 0 0 0 0 0 0 0 0 0 0 0 0 0 0 0 0 0 0 0 0 0 0 0 0 0 0 0 0 0 0 0 0 0 0 0 0 0
0 0 0 0 0 0 0 0 0 0 0 0 0 0 0 0 0 0 0 0 0 0 0 0 0 0 0 0 0 0 0 0 0 0 0 0 0 0 0 0 0 0 0 0
0 0 0 0 0 0 0 0 0 0 0 0 0 0 0 0 0 0 0 0 0 0 0 0 0 0 0 0 0 0 0 0 0 0 0 0 0 0 0 0 0 0 0 0
0 0 0 0 0 0 0 0 0 0 0 0 0 0 0 0 0 0 0 0 0 0 0 0 0 0 0 0 0 0 0 0 0 0 0 0 0 0 0 0 0 0 0 0
0 0 0 0 0 0 0 0 0 0 0 0 0 0 0 0 0 0 0 0 0 0 0 0 0 0 0 0 0 0 0 0 0 0 0 0 0 0 0 0 0 0 0 0
0 0 0 0 0 0 0 0 0 0 0 0 0 0 0 0 0 0 0 0 0 0 0 0 0 0 0 0 0 0 0 0 0 0 0 0 0 0 0 0 0 0 0 0
0 0 0 0 0 0 0 0 -0 0 0 0 0 0 0 0 0 0 0 0 0 0 0 0 0 0 0 0 0 0 0 0 0 0 0 0 0 0 0 0 0 0 0 0
0 0 0 0 0 0 0 0 0 0 0 0 0 0 0 0 0 0 0 0 0 0 0 0 0 0 0 0 0 0 0 0 0 0 0 0 0 0 0 0 0 0 0 0
0 0 0 0 0 0 0 0 0 0 0 0 0 0 0 0 0 0 0 0 0 0 0 0 0 0 0 0 0 0 0 0 0 0 0 0 0 0 0 0 0 0 0 0
0 0 0 0 0 0 -0 0 0 0 0 0 0 0 0 0 0 0 0 0 0 0 0 0 0 0 0 0 0 0 0 0 0 0 0 0 0 0 0 0 0 0 0 0
0 0 0 0 0 0 0 0 0 0 0 0 0 0 0 0 0 0 0 0 0 0 0 0 0 0 0 0 0 0 0 0 0 0 0 0 0 0 0 0 0 0 0 0
0 0 0 0 0 0 0 0 0 0 0 0 0 0 0 0 0 0 0 0 0 0 0 0 0 0 0 0 0 0 0 0 0 0 0 0 0 0 0 0 0 0 0 0
0 0 0 0 0 0 0 0 0 0 0 0 0 0 0 0 0 0 0 0 0 0 0 0 0 0 0 0 0 0 0 0 0 0 0 0 0 0 0 0 0 0 0 0
0 0 0 0 0 0 0 0 0 0 0 0 0 0 0 0 0 0 0 0 0 0 0 0 0 0 0 0 0 0 0 0 0 0 0 0 0 0 0 0 0 0 0 0
Wind_Speed_500mb
6 2 8 11 11 35 37 49 21 18 31 42 41 23 40 55 39 36 41 50 59 64 73 87 94 87 78 68 57 43 33 26 19 10 3 8 13 19 25 31 33 35 33 30
7 6 8 14 17 24 39 32 31 45 43 35 29 22 33 48 42 50 57 58 62 66 73 85 98 96 86 74 62 48 37 30 23 14 5 2 10 16 24 29 31 33 32 31
11 7 10 27 27 29 15 11 24 31 44 19 31 24 52 61 58 63 68 71 74 74 78 84 97 100 94 80 65 53 42 35 29 20 10 4 7 13 21 24 28 30 32 32
5 4 27 7 3 11 37 29 42 22 14 36 35 27 36 49 42 42 64 71 75 76 77 79 89 98 91 79 69 58 47 41 35 25 15 8 5 11 16 21 25 29 32 34
8 13 27 48 8 14 18 29 42 38 59 68 40 20 68 76 62 55 48 54 62 68 73 78 85 95 96 86 75 64 54 47 40 30 20 13 9 9 13 18 23 27 32 33
7 10 27 24 30 30 17 47 29 52 48 37 21 4 32 39 27 11 19 30 34 51 67 75 82 92 101 92 82 71 59 50 44 35 25 17 12 9 11 16 20 26 29 35
30 18 22 15 22 36 13 21 31 50 56 26 15 31 22 1 13 17 13 17 28 44 60 68 75 90 104 95 86 70 60 57 50 40 30 22 15 11 9 13 18 23 26 32
12 22 41 23 14 39 18 24 15 27 45 38 56 54 51 42 34 25 19 22 27 40 56 63 72 90 105 99 85 73 66 62 56 46 36 27 19 12 8 11 16 19 21 27
29 28 10 34 27 65 41 36 28 34 32 24 31 39 44 40 32 28 27 28 27 38 49 61 72 90 102 100 88 80 71 67 59 50 41 32 22 16 9 8 9 11 17 25
14 45 35 59 53 35 34 63 55 54 49 35 40 40 24 30 41 38 35 34 34 39 52 65 76 90 99 96 91 81 75 71 63 53 46 37 28 20 13 7 4 7 14 23
22 47 21 30 45 65 57 50 48 50 55 53 57 64 57 58 62 50 40 39 39 43 52 66 78 93 100 99 93 85 77 73 67 57 48 40 32 23 16 10 5 3 10 18
28 38 15 34 62 59 51 52 63 74 72 64 69 68 60 53 51 45 42 43 45 48 54 68 82 95 103 102 93 85 82 79 71 62 54 45 36 29 22 15 10 4 7 15
25 58 60 31 17 40 59 60 65 60 62 54 50 62 59 55 52 48 46 47 48 52 58 71 85 96 105 104 95 86 81 79 73 65 58 50 42 33 25 20 13 7 4 8
53 60 56 46 36 48 56 55 47 44 45 51 50 47 54 54 52 51 51 49 47 52 61 73 84 99 107 103 94 87 81 74 71 66 59 50 41 34 27 20 13 7 4 1
73 71 68 65 66 64 68 71 69 68 60 58 55 41 43 59 58 52 49 51 48 51 61 74 86 101 107 104 97 90 82 78 72 66 57 49 44 38 30 24 18 13 8 4
54 67 71 78 85 67 64 63 63 68 64 60 56 50 48 55 43 43 52 58 60 60 67 79 90 101 109 106 98 89 82 77 72 66 62 58 50 41 34 28 22 16 11 8
61 52 59 72 82 85 95 97 88 91 85 66 57 52 57 66 55 54 59 62 58 55 65 77 92 103 108 105 97 90 86 81 74 70 66 58 49 42 36 29 23 17 15 13
74 80 79 85 80 80 84 94 99 94 95 91 78 73 71 65 57 53 54 59 62 65 66 77 89 100 108 104 96 90 86 83 80 75 67 58 50 43 37 30 26 22 19 16
62 71 89 97 96 87 87 93 100 96 92 75 73 69 67 56 48 49 46 56 65 71 72 81 86 97 102 98 94 88 85 84 83 76 67 59 53 48 40 35 29 27 21 18
70 60 72 88 95 97 103 104 93 90 92 73 66 67 66 59 57 56 52 57 64 68 74 82 88 99 104 98 91 86 84 83 79 75 69 64 56 50 42 38 34 30 24 22
61 59 65 74 82 82 84 82 76 72 72 68 66 72 67 60 61 60 66 67 68 69 74 81 92 102 104 99 90 85 83 82 80 76 72 66 58 52 46 42 36 32 29 26
56 57 58 60 67 73 66 66 60 61 61 60 65 70 63 66 67 61 58 69 71 71 73 83 92 97 101 93 87 83 82 79 77 75 71 64 59 54 49 44 38 32 32 30
51 50 53 53 54 60 59 56 57 58 59 61 69 70 70 68 67 65 64 66 65 71 76 84 93 96 93 87 83 80 78 78 77 74 68 62 58 53 48 43 38 37 36 33
44 45 47 47 48 49 49 46 46 48 50 51 55 59 64 64 61 58 58 65 66 69 78 90 93 92 87 83 77 75 73 72 70 67 64 60 57 53 49 46 44 40 37 35
39 41 40 38 39 41 40 38 39 41 46 49 50 52 50 48 54 63 61 59 65 74 78 81 85 82 79 73 71 69 67 66 65 63 61 59 56 53 49 46 43 40 38 37
32 33 32 31 35 33 30 33 37 41 46 50 48 43 44 47 47 53 56 60 66 68 72 83 79 74 69 66 64 63 63 62 61 60 58 55 53 50 47 45 43 41 39 37
22 21 20 21 24 26 27 30 37 44 46 49 53 52 50 51 50 52 57 64 72 71 76 80 76 70 66 64 61 59 58 57 57 56 54 52 49 46 44 43 42 41 41 39
Wind_Direction_500mb
264 180 178 202 189 192 204 220 203 219 229 250 253 235 251 262 250 241 233 225 224 221 214 210 208 208 208 209 209 206 208 208 203 212 296 352 14 23 23 29 27 23 19 18
298 334 239 259 211 182 217 239 259 269 266 245 271 248 248 249 236 237 243 240 236 227 220 215 210 208 207 207 206 203 205 202 199 203 214 7 31 31 31 31 30 26 23 21
266 341 319 271 191 191 189 190 210 236 242 266 261 234 241 253 248 248 254 251 239 233 227 219 212 209 206 204 202 201 202 200 196 197 200 132 56 44 38 35 33 30 24 20
248 16 247 258 338 189 207 210 218 248 261 240 248 253 258 265 256 257 264 252 243 237 228 221 215 208 205 202 201 200 199 198 196 191 190 155 103 65 47 39 34 28 25 20
215 204 287 279 191 156 170 244 221 230 246 253 261 303 289 274 272 276 277 269 260 245 231 221 215 207 201 200 199 198 198 196 193 190 186 167 140 86 58 48 40 30 24 20
152 213 238 279 207 169 108 270 208 218 239 251 137 258 265 286 265 262 265 247 241 230 225 221 213 203 199 199 198 198 197 193 190 189 182 173 153 113 69 53 42 35 25 23
225 241 272 195 134 135 150 265 203 218 232 194 190 224 254 192 192 291 255 236 228 223 223 219 210 200 198 199 199 195 192 190 189 185 183 176 164 134 88 58 44 35 25 25
210 219 254 145 134 201 235 224 245 243 240 231 251 255 257 258 267 266 247 234 221 220 215 213 205 198 197 198 195 191 191 190 189 185 183 178 168 147 114 68 45 29 23 24
189 217 216 188 216 220 237 261 256 243 242 261 263 262 267 265 261 254 241 224 218 220 214 207 200 199 197 196 192 190 190 190 187 183 183 180 172 159 140 98 62 29 20 25
175 242 243 245 237 249 249 246 253 258 267 276 275 279 261 299 272 246 236 223 225 217 210 204 197 198 199 193 191 191 190 189 187 185 185 181 177 172 163 147 94 30 27 23
246 254 279 269 252 248 250 257 262 260 261 268 277 273 263 262 253 239 233 229 227 223 214 205 198 195 195 194 193 191 190 189 187 186 188 184 179 177 175 169 159 83 34 28
233 230 238 263 255 258 266 267 261 261 265 268 272 273 267 260 248 239 236 234 226 221 213 206 200 196 192 194 195 194 190 190 189 187 188 189 187 183 182 183 193 137 56 33
247 255 264 272 282 274 261 266 272 272 269 273 277 274 268 256 246 240 239 233 231 228 216 207 202 195 192 192 195 196 195 191 189 190 193 191 188 189 190 190 191 158 97 35
272 275 270 265 263 269 270 279 279 278 271 269 264 267 276 258 255 250 246 236 230 226 218 209 202 196 193 193 193 195 196 196 193 193 194 191 191 192 191 189 189 186 169 65
275 278 281 281 274 271 271 272 273 273 273 270 263 251 268 277 257 254 249 235 234 224 218 212 203 198 194 194 195 195 195 195 194 194 192 192 193 193 194 194 187 188 206 214
267 274 274 274 274 281 276 270 269 269 268 266 261 262 265 261 249 252 242 237 230 223 218 212 205 200 195 194 194 194 195 196 195 192 191 192 195 196 198 198 196 193 203 219
259 265 267 267 268 270 269 271 272 275 276 265 258 256 260 246 244 246 238 236 228 223 224 212 206 198 196 196 195 194 193 192 195 193 196 196 196 198 199 202 203 203 210 215
259 261 264 269 270 271 273 276 275 275 272 269 260 251 243 226 249 242 236 230 220 216 218 211 208 199 196 195 195 196 195 192 193 197 197 197 197 198 202 205 211 216 217 216
263 260 261 261 262 264 268 268 271 273 274 273 255 242 236 229 241 228 222 223 220 216 211 208 204 197 197 197 197 197 195 194 197 197 198 197 197 202 204 208 215 225 229 232
279 274 267 267 267 266 264 264 266 269 270 266 251 238 230 230 230 223 218 222 225 222 213 204 198 196 195 196 197 197 196 199 199 199 197 198 201 205 207 210 219 227 235 241
288 289 282 277 272 269 262 261 260 258 259 250 242 237 228 227 220 216 212 213 217 223 215 202 196 194 194 195 195 196 197 199 201 201 201 201 202 205 209 214 221 230 238 244
293 293 287 281 276 273 266 257 253 249 248 241 232 225 221 214 209 208 219 219 210 216 206 200 195 194 193 193 195 195 197 200 203 202 203 204 206 208 212 217 224 230 241 245
297 294 290 283 277 273 267 258 250 244 239 233 228 222 215 209 204 205 206 210 208 209 200 195 192 190 192 192 194 195 196 201 203 204 204 205 208 211 215 221 226 232 239 245
294 289 284 278 272 264 255 246 237 231 224 218 215 213 206 198 200 203 209 207 197 198 195 192 188 189 189 193 193 195 198 201 203 204 206 208 210 213 216 221 227 235 241 245
287 283 279 271 265 257 247 232 220 211 204 194 196 199 198 202 209 196 196 196 196 189 190 186 185 186 189 190 192 194 197 199 201 204 207 210 212 215 219 224 231 237 240 244
284 280 278 269 258 248 231 216 208 197 190 180 179 184 187 186 183 186 184 187 186 182 179 177 180 184 185 186 188 192 195 198 200 204 208 211 214 218 222 227 232 237 241 243
283 275 263 254 239 230 212 201 194 187 184 181 175 173 175 168 169 173 170 171 171 171 172 173 175 177 179 181 185 189 192 197 202 206 210 213 217 220 225 230 233 236 238 239
Wind_Speed_850mb
6 2 8 11 11 35 37 49 21 18 31 42 41 23 40 55 39 36 41 50 59 64 73 87 94 87 78 68 57 43 33 26 19 10 3 8 13 19 25 31 33 35 33 30
7 6 8 14 17 24 39 32 31 45 43 35 29 22 33 48 42 50 57 58 62 66 73 85 98 96 86 74 62 48 37 30 23 14 5 2 10 16 24 29 31 33 32 31
11 7 10 27 27 29 15 11 24 31 44 19 31 24 52 61 58 63 68 71 74 74 78 84 97 100 94 80 65 53 42 35 29 20 10 4 7 13 21 24 28 30 32 32
5 4 27 7 3 11 37 29 42 22 14 36 35 27 36 49 42 42 64 71 75 76 77 79 89 98 91 79 69 58 47 41 35 25 15 8 5 11 16 21 25 29 32 34
8 13 27 48 8 14 18 29 42 38 59 68 40 20 68 76 62 55 48 54 62 68 73 78 85 95 96 86 75 64 54 47 40 30 20 13 9 9 13 18 23 27 32 33
7 10 27 24 30 30 17 47 29 52 48 37 21 4 32 39 27 11 19 30 34 51 67 75 82 92 101 92 82 71 59 50 44 35 25 17 12 9 11 16 20 26 29 35
30 18 22 15 22 36 13 21 31 50 56 26 15 31 22 1 13 17 13 17 28 44 60 68 75 90 104 95 86 70 60 57 50 40 30 22 15 11 9 13 18 23 26 32
12 22 41 23 14 39 18 24 15 27 45 38 56 54 51 42 34 25 19 22 27 40 56 63 72 90 105 99 85 73 66 62 56 46 36 27 19 12 8 11 16 19 21 27
29 28 10 34 27 65 41 36 28 34 32 24 31 39 44 40 32 28 27 28 27 38 49 61 72 90 102 100 88 80 71 67 59 50 41 32 22 16 9 8 9 11 17 25
14 45 35 59 53 35 34 63 55 54 49 35 40 40 24 30 41 38 35 34 34 39 52 65 76 90 99 96 91 81 75 71 63 53 46 37 28 20 13 7 4 7 14 23
22 47 21 30 45 65 57 50 48 50 55 53 57 64 57 58 62 50 40 39 39 43 52 66 78 93 100 99 93 85 77 73 67 57 48 40 32 23 16 10 5 3 10 18
28 38 15 34 62 59 51 52 63 74 72 64 69 68 60 53 51 45 42 43 45 48 54 68 82 95 103 102 93 85 82 79 71 62 54 45 36 29 22 15 10 4 7 15
25 58 60 31 17 40 59 60 65 60 62 54 50 62 59 55 52 48 46 47 48 52 58 71 85 96 105 104 95 86 81 79 73 65 58 50 42 33 25 20 13 7 4 8
53 60 56 46 36 48 56 55 47 44 45 51 50 47 54 54 52 51 51 49 47 52 61 73 84 99 107 103 94 87 81 74 71 66 59 50 41 34 27 20 13 7 4 1
73 71 68 65 66 64 68 71 69 68 60 58 55 41 43 59 58 52 49 51 48 51 61 74 86 101 107 104 97 90 82 78 72 66 57 49 44 38 30 24 18 13 8 4
54 67 71 78 85 67 64 63 63 68 64 60 56 50 48 55 43 43 52 58 60 60 67 79 90 101 109 106 98 89 82 77 72 66 62 58 50 41 34 28 22 16 11 8
61 52 59 72 82 85 95 97 88 91 85 66 57 52 57 66 55 54 59 62 58 55 65 77 92 103 108 105 97 90 86 81 74 70 66 58 49 42 36 29 23 17 15 13
74 80 79 85 80 80 84 94 99 94 95 91 78 73 71 65 57 53 54 59 62 65 66 77 89 100 108 104 96 90 86 83 80 75 67 58 50 43 37 30 26 22 19 16
62 71 89 97 96 87 87 93 100 96 92 75 73 69 67 56 48 49 46 56 65 71 72 81 86 97 102 98 94 88 85 84 83 76 67 59 53 48 40 35 29 27 21 18
70 60 72 88 95 97 103 104 93 90 92 73 66 67 66 59 57 56 52 57 64 68 74 82 88 99 104 98 91 86 84 83 79 75 69 64 56 50 42 38 34 30 24 22
61 59 65 74 82 82 84 82 76 72 72 68 66 72 67 60 61 60 66 67 68 69 74 81 92 102 104 99 90 85 83 82 80 76 72 66 58 52 46 42 36 32 29 26
56 57 58 60 67 73 66 66 60 61 61 60 65 70 63 66 67 61 58 69 71 71 73 83 92 97 101 93 87 83 82 79 77 75 71 64 59 54 49 44 38 32 32 30
51 50 53 53 54 60 59 56 57 58 59 61 69 70 70 68 67 65 64 66 65 71 76 84 93 96 93 87 83 80 78 78 77 74 68 62 58 53 48 43 38 37 36 33
44 45 47 47 48 49 49 46 46 48 50 51 55 59 64 64 61 58 58 65 66 69 78 90 93 92 87 83 77 75 73 72 70 67 64 60 57 53 49 46 44 40 37 35
39 41 40 38 39 41 40 38 39 41 46 49 50 52 50 48 54 63 61 59 65 74 78 81 85 82 79 73 71 69 67 66 65 63 61 59 56 53 49 46 43 40 38 37
32 33 32 31 35 33 30 33 37 41 46 50 48 43 44 47 47 53 56 60 66 68 72 83 79 74 69 66 64 63 63 62 61 60 58 55 53 50 47 45 43 41 39 37
22 21 20 21 24 26 27 30 37 44 46 49 53 52 50 51 50 52 57 64 72 71 76 80 76 70 66 64 61 59 58 57 57 56 54 52 49 46 44 43 42 41 41 39
Wind_Direction_850mb
264 180 178 202 189 192 204 220 203 219 229 250 253 235 251 262 250 241 233 225 224 221 214 210 208 208 208 209 209 206 208 208 203 212 296 352 14 23 23 29 27 23 19 18
298 334 239 259 211 182 217 239 259 269 266 245 271 248 248 249 236 237 243 240 236 227 220 215 210 208 207 207 206 203 205 202 199 203 214 7 31 31 31 31 30 26 23 21
266 341 319 271 191 191 189 190 210 236 242 266 261 234 241 253 248 248 254 251 239 233 227 219 212 209 206 204 202 201 202 200 196 197 200 132 56 44 38 35 33 30 24 20
248 16 247 258 338 189 207 210 218 248 261 240 248 253 258 265 256 257 264 252 243 237 228 221 215 208 205 202 201 200 199 198 196 191 190 155 103 65 47 39 34 28 25 20
215 204 287 279 191 156 170 244 221 230 246 253 261 303 289 274 272 276 277 269 260 245 231 221 215 207 201 200 199 198 198 196 193 190 186 167 140 86 58 48 40 30 24 20
152 213 238 279 207 169 108 270 208 218 239 251 137 258 265 286 265 262 265 247 241 230 225 221 213 203 199 199 198 198 197 193 190 189 182 173 153 113 69 53 42 35 25 23
225 241 272 195 134 135 150 265 203 218 232 194 190 224 254 192 192 291 255 236 228 223 223 219 210 200 198 199 199 195 192 190 189 185 183 176 164 134 88 58 44 35 25 25
210 219 254 145 134 201 235 224 245 243 240 231 251 255 257 258 267 266 247 234 221 220 215 213 205 198 197 198 195 191 191 190 189 185 183 178 168 147 114 68 45 29 23 24
189 217 216 188 216 220 237 261 256 243 242 261 263 262 267 265 261 254 241 224 218 220 214 207 200 199 197 196 192 190 190 190 187 183 183 180 172 159 140 98 62 29 20 25
175 242 243 245 237 249 249 246 253 258 267 276 275 279 261 299 272 246 236 223 225 217 210 204 197 198 199 193 191 191 190 189 187 185 185 181 177 172 163 147 94 30 27 23
246 254 279 269 252 248 250 257 262 260 261 268 277 273 263 262 253 239 233 229 227 223 214 205 198 195 195 194 193 191 190 189 187 186 188 184 179 177 175 169 159 83 34 28
233 230 238 263 255 258 266 267 261 261 265 268 272 273 267 260 248 239 236 234 226 221 213 206 200 196 192 194 195 194 190 190 189 187 188 189 187 183 182 183 193 137 56 33
247 255 264 272 282 274 261 266 272 272 269 273 277 274 268 256 246 240 239 233 231 228 216 207 202 195 192 192 195 196 195 191 189 190 193 191 188 189 190 190 191 158 97 35
272 275 270 265 263 269 270 279 279 278 271 269 264 267 276 258 255 250 246 236 230 226 218 209 202 196 193 193 193 195 196 196 193 193 194 191 191 192 191 189 189 186 169 65
275 278 281 281 274 271 271 272 273 273 273 270 263 251 268 277 257 254 249 235 234 224 218 212 203 198 194 194 195 195 195 195 194 194 192 192 193 193 194 194 187 188 206 214
267 274 274 274 274 281 276 270 269 269 268 266 261 262 265 261 249 252 242 237 230 223 218 212 205 200 195 194 194 194 195 196 195 192 191 192 195 196 198 198 196 193 203 219
259 265 267 267 268 270 269 271 272 275 276 265 258 256 260 246 244 246 238 236 228 223 224 212 206 198 196 196 195 194 193 192 195 193 196 196 196 198 199 202 203 203 210 215
259 261 264 269 270 271 273 276 275 275 272 269 260 251 243 226 249 242 236 230 220 216 218 211 208 199 196 195 195 196 195 192 193 197 197 197 197 198 202 205 211 216 217 216
263 260 261 261 262 264 268 268 271 273 274 273 255 242 236 229 241 228 222 223 220 216 211 208 204 197 197 197 197 197 195 194 197 197 198 197 197 202 204 208 215 225 229 232
279 274 267 267 267 266 264 264 266 269 270 266 251 238 230 230 230 223 218 222 225 222 213 204 198 196 195 196 197 197 196 199 199 199 197 198 201 205 207 210 219 227 235 241
288 289 282 277 272 269 262 261 260 258 259 250 242 237 228 227 220 216 212 213 217 223 215 202 196 194 194 195 195 196 197 199 201 201 201 201 202 205 209 214 221 230 238 244
293 293 287 281 276 273 266 257 253 249 248 241 232 225 221 214 209 208 219 219 210 216 206 200 195 194 193 193 195 195 197 200 203 202 203 204 206 208 212 217 224 230 241 245
297 294 290 283 277 273 267 258 250 244 239 233 228 222 215 209 204 205 206 210 208 209 200 195 192 190 192 192 194 195 196 201 203 204 204 205 208 211 215 221 226 232 239 245
294 289 284 278 272 264 255 246 237 231 224 218 215 213 206 198 200 203 209 207 197 198 195 192 188 189 189 193 193 195 198 201 203 204 206 208 210 213 216 221 227 235 241 245
287 283 279 271 265 257 247 232 220 211 204 194 196 199 198 202 209 196 196 196 196 189 190 186 185 186 189 190 192 194 197 199 201 204 207 210 212 215 219 224 231 237 240 244
284 280 278 269 258 248 231 216 208 197 190 180 179 184 187 186 183 186 184 187 186 182 179 177 180 184 185 186 188 192 195 198 200 204 208 211 214 218 222 227 232 237 241 243
283 275 263 254 239 230 212 201 194 187 184 181 175 173 175 168 169 173 170 171 171 171 172 173 175 177 179 181 185 189 192 197 202 206 210 213 217 220 225 230 233 236 238 239